[[{"header":{"parameterUnit":"m.s-1","parameterCategory":1,"la1":30.2991,"la2":30.254,"lo1":-89.0895,"lo2":-89.0444,"dy":0.0017,"dx":0.0017,"nx":28,"ny":28,"refTime":"2025-07-18T21:00:00:Z","depth":0,"parameterNumber":2,"parameterNumberName":"U-component_of_WINDS"},"data":[0,0,0,0,0,0,0,0,0,0,0,0,0,0,0,0,0,0,0,0,0,0,0,0,0,0,0,0,0,0,0,0,0,0,0,0,0,0,0,0,0,0,0,0,0,0,0,0,0,0,0,0,0,0,0,0,0,0,1.6546,1.6546,0,1.6495,1.6494,1.6494,1.6438,1.6437,1.6437,1.6436,1.6386,1.6385,1.6385,0,0,0,0,0,0,0,0,0,0,0,0,0,1.6598,1.6597,1.6547,1.6546,1.6545,1.6495,1.6494,1.6494,1.6438,1.6437,1.6436,1.6436,1.6386,1.6385,1.6385,0,0,0,0,0,0,0,0,0,0,0,0,0,1.6564,1.6597,1.6547,1.6512,1.6508,1.6495,1.6494,1.6493,1.6439,1.6437,1.6436,1.6435,1.6386,1.6385,1.6385,1.6403,0,0,1.6382,1.6381,0,0,0,0,0,0,0,0,1.6566,1.6562,1.6517,1.6514,1.651,1.6472,1.6494,1.6463,1.6439,1.6465,1.6436,1.6435,1.6416,1.6412,1.6405,1.6401,1.6399,1.6382,1.6381,1.6381,1.6381,0,0,0,0,0,0,0,1.6569,1.6564,1.6526,1.6517,1.6512,1.6499,1.6493,1.6488,1.6448,1.6463,1.6458,1.6453,1.6413,1.6406,1.6404,1.6398,1.6382,1.6381,1.638,1.638,1.6404,1.6405,0,0,0,0,0,0,1.6576,1.6567,1.6528,1.6525,1.6535,1.6499,1.6492,1.6485,1.6448,1.6441,1.6454,1.6451,1.6408,1.6405,1.6402,1.6419,1.6381,1.638,1.638,1.6402,1.6404,1.6405,0,0,0,0,0,0,1.6577,1.6573,1.653,1.6544,1.6538,1.6499,1.6492,1.6485,1.6478,1.6441,1.6434,1.6454,1.6407,1.6403,1.6402,1.6417,1.638,1.6379,1.6401,1.6403,1.6404,1.6456,0,0,0,0,0,0,1.6579,1.6574,1.658,1.6545,1.6537,1.6531,1.6493,1.6485,1.6476,1.6471,1.6439,1.6433,1.6406,1.6404,1.6402,1.6415,1.6378,1.64,1.6402,1.6404,1.6453,1.6459,1.6465,0,0,0,0,0,1.6581,1.6598,1.6581,1.6577,1.6545,1.6532,1.6528,1.6496,1.6477,1.6484,1.646,1.6434,1.6416,1.6404,1.6401,1.6415,1.6399,1.6401,1.6404,1.645,1.6458,1.6465,0,0,0,0,0,0,1.6638,1.6593,1.6574,1.6579,1.656,1.6523,1.653,1.6506,1.6492,1.6488,1.6449,1.6443,1.6446,1.643,1.6419,1.6429,1.6403,1.6405,1.644,1.6447,1.6453,1.6457,1.6377,0,0,0,0,0,1.6651,1.6644,1.6605,1.6614,1.6605,1.6569,1.6563,1.654,1.6518,1.651,1.6486,1.6467,1.6457,1.6451,1.644,1.645,1.6442,1.6458,1.6464,1.6469,1.6471,1.6474,1.648,1.6414,1.6414,1.6414,0,0,1.6678,1.6653,1.6651,1.6625,1.6607,1.6601,1.6563,1.6559,1.6554,1.651,1.6507,1.6489,1.6465,1.6469,1.647,1.6456,1.6487,1.6472,1.6476,1.6476,1.6477,1.6483,1.6489,1.6415,1.6415,1.6415,0,0,1.6724,1.6705,1.6709,1.6691,1.6664,1.664,1.6641,1.6607,1.6593,1.6589,1.6555,1.6549,1.6533,1.6516,1.6506,1.6544,1.6519,1.6541,1.6573,1.6576,1.6581,1.6585,1.6598,1.6603,1.6544,1.6544,1.6544,0,1.6762,1.6751,1.6715,1.6712,1.6701,1.6659,1.6663,1.6648,1.6619,1.6612,1.6597,1.6574,1.6555,1.6554,1.6563,1.6556,1.6556,1.6545,1.6583,1.6587,1.6591,1.6602,1.6607,1.6547,1.6546,1.6546,1.6546,0,1.6797,1.679,1.6797,1.6768,1.6758,1.6759,1.6723,1.6717,1.6694,1.6672,1.6668,1.6643,1.6625,1.6623,1.6602,1.6619,1.6611,1.659,1.6563,1.66,1.6611,1.6615,1.6551,1.655,1.6549,1.6548,0,0,1.6879,1.6829,1.6832,1.6818,1.6784,1.6778,1.6776,1.6757,1.6752,1.6733,1.6731,1.6716,1.6696,1.6684,1.666,1.6663,1.6693,1.6641,1.664,1.6651,1.6709,1.6725,1.6731,1.6676,1.6677,1.6677,1.6711,0,1.6919,1.6912,1.6879,1.6883,1.6875,1.6834,1.6832,1.6811,1.679,1.678,1.6756,1.6746,1.672,1.6713,1.6714,1.6689,1.6704,1.6686,1.6673,1.6673,1.668,1.6736,1.6753,1.6786,1.6715,1.6715,1.6716,0,1.6965,1.6947,1.6949,1.6913,1.6909,1.6908,1.6887,1.6878,1.6853,1.6837,1.6823,1.6795,1.6791,1.6765,1.6758,1.6747,1.6739,1.6726,1.6727,1.6724,1.6697,1.6735,1.6796,1.6801,1.6722,1.6721,1.6721,0,1.7023,1.7,1.6997,1.6986,1.6945,1.6945,1.6928,1.6901,1.6891,1.6873,1.6866,1.6849,1.6839,1.6826,1.6794,1.6779,1.679,1.6763,1.6777,1.6778,1.6781,1.6781,1.6842,1.6777,1.6777,1.6777,1.6777,0,1.7071,1.7074,1.7022,1.7021,1.7023,1.6984,1.6987,1.6966,1.6942,1.6936,1.69,1.6895,1.6853,1.6844,1.6819,1.6816,1.6813,1.6799,1.6793,1.6802,1.6804,1.6797,1.6793,1.6778,1.6778,1.6778,1.6778,0,1.7136,1.7102,1.7097,1.7057,1.7047,1.705,1.7016,1.7013,1.6988,1.6981,1.6977,1.6939,1.6925,1.6892,1.687,1.6853,1.6857,1.6845,1.6865,1.6861,1.6876,1.6875,1.6934,1.694,1.6873,1.6873,1.6874,0,1.7169,1.7169,1.7129,1.7122,1.7106,1.7095,1.7084,1.7045,1.7036,1.7006,1.7007,1.699,1.6974,1.6954,1.6925,1.6908,1.6895,1.6917,1.6892,1.6901,1.6894,1.6894,1.6894,1.6922,1.6923,1.6924,1.6924,0,1.7229,1.7212,1.7197,1.7176,1.7164,1.7146,1.7126,1.7122,1.7079,1.707,1.7055,1.7043,1.7019,1.7003,1.6981,1.6963,1.6937,1.6932,1.6934,1.6944,1.6955,1.6948,1.6879,1.6931,1.693,1.693,1.693,1.6929,1.7279,1.7277,1.7247,1.7232,1.7212,1.7194,1.7189,1.7163,1.7149,1.7126,1.7104,1.7091,1.7065,1.7032,1.7016,1.7005,1.6992,1.6995,1.6996,1.6997,1.7001,1.6957,1.7001,1.7001,1.7001,1.7,1.7,0,1.7337,1.7315,1.7301,1.7273,1.7261,1.7236,1.7212,1.7203,1.7192,1.7169,1.7153,1.7135,1.7119,1.7087,1.7068,1.7065,1.7053,1.7062,1.7061,1.7057,1.7015,1.7014,1.7072,1.7072,1.7072,1.7072,1.7072,1.7072,1.7365,1.736,1.7339,1.7324,1.7302,1.7288,1.7277,1.7259,1.724,1.7221,1.7207,1.7186,1.7159,1.7137,1.7121,1.7112,1.7106,1.7119,1.7107,1.7067,1.7061,1.7054,1.7053,1.7118,1.7119,1.715,1.715,1.715]},{"header":{"parameterUnit":"m.s-1","parameterCategory":1,"la1":30.2991,"la2":30.254,"lo1":-89.0895,"lo2":-89.0444,"dy":0.0017,"dx":0.0017,"nx":28,"ny":28,"refTime":"2025-07-18T21:00:00:Z","depth":0,"parameterNumber":3,"parameterNumberName":"V-component_of_WINDS"},"data":[0,0,0,0,0,0,0,0,0,0,0,0,0,0,0,0,0,0,0,0,0,0,0,0,0,0,0,0,0,0,0,0,0,0,0,0,0,0,0,0,0,0,0,0,0,0,0,0,0,0,0,0,0,0,0,0,0,0,2.7512,2.7512,0,2.7527,2.7527,2.7528,2.7499,2.7498,2.7497,2.7496,2.7512,2.7513,2.7514,0,0,0,0,0,0,0,0,0,0,0,0,0,2.7459,2.746,2.7512,2.7512,2.7512,2.7527,2.7527,2.7528,2.7499,2.7498,2.7497,2.7495,2.7511,2.7513,2.7514,0,0,0,0,0,0,0,0,0,0,0,0,0,2.7479,2.746,2.7512,2.75,2.7499,2.7527,2.7527,2.7528,2.7499,2.7498,2.7496,2.7495,2.7511,2.7513,2.7515,2.7556,0,0,2.7521,2.7522,0,0,0,0,0,0,0,0,2.7478,2.7481,2.7501,2.7501,2.75,2.751,2.7514,2.7537,2.7499,2.7499,2.7496,2.7494,2.7512,2.7514,2.752,2.7556,2.7557,2.7521,2.7522,2.7523,2.7524,0,0,0,0,0,0,0,2.7476,2.748,2.7518,2.7502,2.7501,2.7494,2.7495,2.7519,2.7514,2.7499,2.7497,2.7499,2.7511,2.7518,2.752,2.7557,2.7521,2.7523,2.7524,2.7525,2.7629,2.763,0,0,0,0,0,0,2.7476,2.7479,2.7518,2.7518,2.7485,2.7496,2.7497,2.7508,2.7513,2.7513,2.75,2.7498,2.7516,2.7518,2.7521,2.7569,2.7523,2.7525,2.7526,2.7627,2.7629,2.7631,0,0,0,0,0,0,2.7475,2.748,2.7517,2.7498,2.7502,2.7498,2.751,2.7509,2.7516,2.7514,2.7513,2.7508,2.7514,2.7518,2.7547,2.757,2.7526,2.7527,2.7625,2.7628,2.763,2.7667,0,0,0,0,0,0,2.7474,2.748,2.7495,2.7499,2.7503,2.7543,2.7512,2.751,2.7519,2.7516,2.7521,2.7521,2.7514,2.7545,2.7549,2.7571,2.7529,2.7623,2.7627,2.7629,2.7664,2.7671,2.7676,0,0,0,0,0,2.7472,2.7505,2.7496,2.7501,2.7522,2.7545,2.7547,2.7538,2.7521,2.7537,2.7536,2.7521,2.7566,2.7548,2.7553,2.7576,2.7622,2.7626,2.7629,2.7661,2.7669,2.7676,0,0,0,0,0,0,2.7504,2.7505,2.7495,2.753,2.7538,2.754,2.7559,2.7547,2.756,2.7556,2.7544,2.7546,2.7578,2.758,2.7559,2.7616,2.7591,2.7596,2.7614,2.7622,2.7628,2.7626,2.7531,0,0,0,0,0,2.7515,2.7533,2.7533,2.7564,2.7568,2.7563,2.7572,2.7565,2.7572,2.7575,2.7576,2.7584,2.76,2.7611,2.7626,2.7664,2.7665,2.7683,2.7689,2.7694,2.7698,2.7719,2.7727,2.7643,2.7643,2.7643,0,0,2.7538,2.7541,2.7553,2.757,2.7575,2.7594,2.7566,2.7587,2.7601,2.7578,2.7606,2.7607,2.7615,2.765,2.7665,2.7652,2.7722,2.7698,2.7702,2.7704,2.7724,2.7732,2.7739,2.7645,2.7645,2.7644,0,0,2.759,2.7593,2.762,2.7625,2.7633,2.763,2.7636,2.764,2.764,2.7668,2.7652,2.7669,2.7696,2.7703,2.771,2.7765,2.7752,2.777,2.7802,2.7823,2.7829,2.7835,2.7855,2.7862,2.7774,2.7774,2.7774,0,2.7617,2.7645,2.7635,2.7657,2.7666,2.7646,2.7673,2.7679,2.7691,2.7698,2.7683,2.7718,2.7722,2.7758,2.7772,2.7778,2.7785,2.7769,2.7829,2.7835,2.784,2.7859,2.7867,2.7777,2.7776,2.7776,2.7776,0,2.7679,2.7698,2.7719,2.7731,2.7742,2.7766,2.776,2.7773,2.7765,2.7763,2.7792,2.7796,2.7811,2.7819,2.7812,2.7855,2.7846,2.7831,2.7806,2.7851,2.7868,2.7875,2.778,2.7779,2.7778,2.7778,0,0,2.775,2.7758,2.7765,2.7771,2.7779,2.7794,2.7818,2.7833,2.7844,2.7853,2.7873,2.7897,2.7883,2.7891,2.7884,2.7902,2.7946,2.7884,2.7884,2.7896,2.7994,2.8006,2.8015,2.7937,2.7939,2.794,2.7994,0,2.7802,2.7843,2.7835,2.7875,2.7894,2.7876,2.7897,2.7904,2.7903,2.7919,2.7918,2.7936,2.7915,2.792,2.7937,2.7937,2.7966,2.7933,2.7956,2.7957,2.7955,2.8024,2.8036,2.8087,2.8,2.8002,2.8002,0,2.7867,2.7879,2.7922,2.7927,2.7934,2.7953,2.7967,2.7982,2.799,2.7988,2.7998,2.7987,2.8011,2.7986,2.8019,2.7997,2.8006,2.8008,2.8009,2.8011,2.7983,2.8028,2.8103,2.811,2.8013,2.8012,2.8012,0,2.7916,2.7943,2.7971,2.7977,2.7984,2.7998,2.8001,2.8008,2.8018,2.803,2.8036,2.8051,2.8059,2.8071,2.8065,2.8047,2.81,2.8073,2.8099,2.8099,2.8111,2.811,2.8189,2.8117,2.8116,2.8116,2.8116,0,2.7974,2.8001,2.7993,2.8011,2.8041,2.8032,2.8061,2.8063,2.8069,2.8087,2.8072,2.809,2.8081,2.8097,2.8093,2.8121,2.8125,2.8124,2.8123,2.8126,2.8126,2.8132,2.8128,2.8118,2.8118,2.8117,2.8117,0,2.8033,2.8029,2.8059,2.8064,2.8066,2.8087,2.8091,2.8108,2.8106,2.8129,2.8134,2.8132,2.8151,2.8146,2.8166,2.8163,2.82,2.8194,2.8197,2.8196,2.8222,2.8219,2.8306,2.8318,2.8238,2.8239,2.824,0,2.807,2.8091,2.8097,2.8108,2.8113,2.8131,2.8141,2.8134,2.8145,2.8156,2.8172,2.8189,2.8203,2.8234,2.8234,2.825,2.8244,2.8274,2.8247,2.8249,2.8245,2.8244,2.8246,2.8279,2.828,2.8281,2.8282,0,2.8138,2.8135,2.815,2.8165,2.8178,2.8189,2.8199,2.8209,2.8202,2.8216,2.8235,2.8246,2.8267,2.8285,2.83,2.8304,2.8292,2.829,2.8297,2.83,2.8302,2.8302,2.8212,2.8288,2.8288,2.8287,2.8287,2.8286,2.8187,2.8204,2.8212,2.823,2.8237,2.8247,2.8263,2.8264,2.828,2.8297,2.8291,2.8313,2.8321,2.834,2.8346,2.8363,2.8352,2.8362,2.8364,2.8367,2.837,2.8299,2.8366,2.8365,2.8365,2.8365,2.8365,0,2.8254,2.8258,2.8274,2.8289,2.8304,2.8291,2.8302,2.8315,2.8335,2.8343,2.8357,2.838,2.8397,2.8399,2.8416,2.8429,2.8424,2.8434,2.8433,2.8434,2.8379,2.8372,2.8438,2.8438,2.8438,2.8438,2.8438,2.8438,2.829,2.8319,2.8317,2.835,2.8354,2.8376,2.8383,2.8392,2.8399,2.8425,2.844,2.8441,2.8447,2.8464,2.848,2.848,2.8487,2.8499,2.8497,2.8445,2.8438,2.8431,2.8424,2.85,2.85,2.855,2.8551,2.8551]}]]